Location: Jaite
(41.2884°N, 81.5737°W)
Time: 12:54:15
(UTC+00:00)

Cosmos 332 Rocket - Pass Details

Date: 15 November 2025
Orbit: 673 x 692 km, 74.0° (Epoch: 11 December)

Event Time Altitude Azimuth Distance (km) Brightness Sun altitude
Rises 11:11:15 0° 342° (NNW) 3,054 6.8 -12.1°
Reaches altitude 10° 11:13:35 10° 345° (NNW) 2,131 6.0 -11.7°
Maximum altitude 11:18:22 70° 69° (ENE) 726 4.1 -10.8°
Drops below altitude 10° 11:23:05 10° 153° (SSE) 2,105 6.9 -10.0°
Sets 11:25:22 0° 156° (SSE) 3,013 7.7 -9.5°
